Theta_e
325 326 327 328 326 325 325 326 325 324 322 321 320 324 323 324 322 324 325 325 324 325 325 326 328 328 328 327 326 325 328 328 328 328 328 327 327 327 326 326 326 326 326
325 326 327 328 326 326 326 326 326 325 323 320 318 322 321 323 324 325 325 324 324 324 325 329 328 328 328 325 326 327 328 328 328 328 327 326 326 327 328 326 326 327 324
324 324 327 327 327 326 325 325 325 326 325 325 322 322 322 324 325 325 324 325 327 328 328 329 328 328 328 327 326 327 329 328 327 327 326 326 326 326 326 325 327 324 321
322 324 327 327 328 326 325 325 325 325 325 325 325 324 325 326 325 325 326 326 327 328 329 328 328 327 327 329 328 328 328 327 328 327 327 326 326 327 326 326 326 320 316
321 324 326 326 326 326 325 326 325 324 325 325 324 324 325 325 324 325 325 325 324 325 328 328 330 328 328 328 327 328 327 328 327 326 328 328 327 327 326 326 321 317 317
321 323 325 328 325 326 326 327 326 325 323 325 325 324 325 324 324 325 325 324 324 324 326 330 327 329 327 327 326 328 328 327 328 327 326 326 326 326 325 321 314 316 319
321 322 325 327 325 327 327 327 328 326 325 325 326 326 326 325 325 325 325 324 325 326 326 327 328 328 327 326 326 326 326 327 325 325 326 326 327 322 312 312 314 319 321
322 321 325 326 325 325 324 323 326 328 327 326 327 328 328 327 326 326 326 326 326 326 326 326 329 327 326 326 325 325 324 324 324 324 323 321 314 314 318 320 321 321 322
322 321 322 325 325 324 324 322 322 328 327 328 326 326 327 327 327 327 326 327 327 327 327 326 328 327 325 326 326 325 324 322 321 320 320 320 320 321 321 321 321 321 320
323 320 320 325 324 324 324 323 320 324 328 328 327 326 327 327 327 326 326 326 324 326 326 327 326 326 326 326 325 323 322 323 322 322 323 324 322 322 317 314 314 315 315
323 320 319 321 326 322 322 322 320 320 323 328 327 327 327 327 327 327 327 327 325 323 324 326 326 326 325 324 323 322 323 324 323 322 323 322 315 313 314 316 317 316 317
323 320 318 319 325 326 323 322 320 318 318 321 322 320 323 327 327 327 326 326 327 326 325 325 325 326 325 322 322 323 324 323 321 321 319 316 314 314 316 317 318 319 320
322 321 318 318 322 326 326 322 321 320 317 318 319 320 319 318 321 323 324 326 327 327 326 326 325 324 323 321 321 322 322 321 320 319 314 314 314 315 315 317 319 320 319
322 322 318 318 317 325 325 324 323 322 320 317 316 318 320 321 319 318 318 319 319 319 325 320 317 316 316 316 318 320 320 318 315 315 313 313 313 313 315 318 319 319 315
321 322 319 318 318 317 320 323 322 321 320 317 317 314 316 318 320 320 319 318 318 320 319 318 316 314 314 316 315 316 316 315 314 314 314 314 312 313 317 318 318 316 311
321 322 321 318 318 317 318 320 321 321 320 319 316 316 316 314 314 317 318 319 319 319 319 319 318 316 315 315 315 315 314 314 316 318 318 316 312 313 315 318 316 312 305
321 321 321 318 319 319 318 317 318 319 321 321 320 318 316 319 320 319 316 313 314 316 316 316 314 315 314 314 314 314 314 315 318 318 314 311 312 314 315 318 315 311 302
322 321 320 319 318 319 319 318 318 317 317 318 319 319 318 318 321 322 320 317 314 310 312 314 312 311 312 312 312 314 315 315 316 314 310 310 313 313 316 316 312 305 299
324 322 321 320 318 318 319 319 319 318 318 316 317 317 318 317 318 321 321 320 316 312 309 311 312 312 311 312 311 312 314 315 316 315 311 310 312 313 317 313 309 300 297
325 324 322 321 320 318 318 319 319 319 319 318 318 316 316 316 315 315 317 317 316 314 311 308 309 312 312 312 311 310 310 312 314 313 310 310 312 315 315 312 304 298 297
326 325 323 322 321 320 318 318 319 319 320 319 319 318 317 315 313 312 312 314 313 312 312 311 309 307 310 311 313 313 311 309 309 310 309 309 312 316 313 307 300 297 295
326 326 325 324 322 322 321 320 319 319 320 320 320 319 319 318 317 314 312 311 312 312 313 314 314 313 313 310 309 311 314 314 313 312 309 310 314 315 311 305 297 295 297
325 326 326 325 324 323 322 322 322 321 321 321 321 321 320 319 319 318 315 314 313 314 315 316 316 317 318 318 317 314 309 309 311 313 314 312 314 314 312 301 297 298 303
326 325 326 327 327 326 324 324 323 323 322 322 322 323 322 321 320 321 321 320 317 316 316 316 316 317 317 317 318 318 318 313 314 313 315 314 315 311 304 299 301 302 302
329 329 327 326 329 329 329 328 327 326 325 324 323 323 324 323 322 322 322 323 323 322 321 321 320 320 320 319 318 317 317 318 315 312 314 313 313 308 301 299 302 301 296
331 331 331 328 328 330 329 330 330 329 328 327 326 326 326 325 325 324 323 323 323 323 323 323 323 322 321 320 319 318 316 316 314 311 311 313 313 308 301 301 302 299 295
Wind_Speed
6 3 1 4 6 6 3 5 3 6 9 10 12 11 6 6 6 5 7 7 8 9 8 8 8 13 16 16 5 14 18 21 25 22 25 33 29 27 31 25 21 15 14
5 4 1 2 4 5 3 5 6 6 9 10 11 9 6 6 7 7 8 9 8 9 9 8 9 11 17 14 10 14 14 14 20 28 30 33 29 27 25 21 16 12 12
6 4 4 2 3 4 7 7 6 8 10 11 11 10 9 8 8 7 8 8 8 9 9 11 12 10 12 11 14 9 15 14 21 27 28 31 28 27 24 17 12 13 12
7 5 4 2 3 4 9 9 8 11 12 12 13 14 13 11 10 9 10 12 12 11 11 11 12 11 12 15 12 13 19 19 19 21 25 31 31 30 20 15 13 13 12
8 6 5 5 4 7 11 10 9 10 12 12 14 15 13 11 12 13 15 15 12 11 12 12 14 14 14 17 16 18 18 21 25 27 30 30 30 26 19 14 16 15 13
11 8 8 9 9 9 12 11 10 10 12 13 12 11 12 12 11 11 8 7 8 10 13 14 16 17 18 17 15 15 24 24 26 30 27 24 27 22 18 19 18 15 13
14 10 12 11 11 11 12 10 9 10 10 9 8 7 10 11 11 9 6 4 4 10 15 16 17 19 23 22 23 20 23 28 25 17 16 18 21 19 19 20 17 15 14
17 13 14 13 14 13 11 10 8 9 10 9 6 5 9 12 11 8 7 8 12 15 18 19 21 28 24 24 22 21 23 21 12 13 16 19 20 20 18 17 15 12 9
21 17 15 15 14 14 12 9 8 8 12 11 14 15 13 17 13 12 14 16 16 17 18 22 19 26 27 22 19 17 18 20 19 20 20 20 20 17 14 11 9 8 8
23 19 16 18 16 15 11 9 9 10 12 12 12 11 14 16 16 17 17 19 20 24 26 28 27 28 24 18 16 18 20 19 18 19 17 17 16 14 12 11 8 7 6
22 21 18 19 18 16 14 12 11 12 12 13 12 12 11 12 16 15 15 16 22 27 26 26 25 21 15 16 19 18 16 16 17 18 17 14 12 12 11 9 7 5 2
23 24 20 18 21 18 16 15 13 13 12 13 13 12 12 12 13 15 16 15 17 20 21 22 19 15 15 17 18 18 16 13 12 12 10 9 9 9 9 5 4 3 3
25 26 22 19 22 20 19 18 17 14 13 14 13 13 13 12 14 14 14 14 13 14 16 16 14 14 16 18 18 16 14 11 9 9 9 10 10 8 7 6 4 5 2
28 28 25 23 22 23 20 19 18 17 15 14 15 15 14 14 15 14 14 13 13 13 15 16 16 16 16 17 19 18 15 12 10 9 11 11 10 10 9 9 8 3 2
29 30 27 26 23 25 23 22 20 17 15 16 15 15 17 17 16 14 14 14 14 14 14 17 18 19 19 19 18 18 17 16 15 15 15 13 12 12 13 12 7 5 3
32 33 32 30 28 24 25 24 22 20 16 13 12 15 13 11 13 14 13 12 13 14 17 18 20 20 20 20 21 20 20 19 18 17 16 15 14 14 15 13 10 7 6
33 34 35 33 32 31 28 25 24 22 21 19 17 16 17 14 14 14 15 18 19 19 19 20 21 22 23 24 24 23 22 21 19 19 18 18 17 17 17 16 14 12 12
35 33 34 34 35 32 31 29 25 23 23 23 22 20 20 21 19 18 19 20 24 27 26 23 23 22 25 26 27 27 25 24 23 22 21 21 20 21 21 19 17 16 15
38 37 35 34 34 33 31 31 29 27 25 24 24 24 24 25 25 26 26 27 27 28 29 29 26 26 26 27 28 29 29 28 27 26 25 25 24 24 24 22 18 18 16
39 37 37 36 34 35 33 31 30 31 30 28 26 26 26 28 31 33 33 33 33 31 29 30 30 29 29 28 29 30 31 32 31 30 29 28 27 26 26 24 23 22 20
40 38 37 38 36 36 35 34 32 31 31 31 28 25 25 28 29 32 35 35 35 34 31 30 29 31 32 32 32 32 33 34 34 33 32 30 29 28 25 25 27 23 14
38 38 38 38 40 38 38 36 34 32 32 32 31 30 28 28 29 29 32 35 35 34 32 31 30 30 30 32 34 34 35 36 35 35 34 33 32 30 25 25 22 17 10
36 36 36 37 38 40 40 38 37 36 33 31 30 31 33 32 31 30 30 30 31 33 33 33 31 31 29 29 30 32 37 36 32 35 38 37 35 35 34 33 30 20 16
31 36 35 34 35 36 38 39 39 38 37 36 33 32 34 34 32 30 27 26 27 28 30 31 33 32 32 30 32 33 33 33 37 38 40 39 39 39 38 36 29 24 26
23 27 33 37 34 34 34 33 34 36 36 36 36 32 30 31 32 30 26 25 25 27 27 27 29 31 32 33 34 34 36 40 41 38 36 36 39 41 40 34 27 26 25
28 32 33 38 39 35 36 33 30 29 29 28 29 29 29 28 27 28 29 29 29 28 26 27 29 31 32 34 34 35 37 38 35 33 34 37 42 41 39 34 29 30 24
Wind_Direction
187 181 120 11 17 36 50 27 123 139 152 161 167 163 147 155 159 158 160 161 166 176 180 191 196 196 190 187 191 164 175 160 159 164 163 167 153 152 153 154 147 150 152
198 197 176 27 31 32 82 73 107 133 144 150 166 181 166 153 151 151 153 147 147 161 164 164 153 151 168 179 159 163 163 167 175 146 163 166 165 155 149 146 134 144 136
186 176 172 75 48 37 116 106 106 124 140 140 144 149 142 137 135 136 140 142 139 144 158 164 160 163 176 179 177 183 176 173 167 161 158 168 167 164 153 147 143 129 128
180 171 163 129 75 86 124 104 109 121 123 126 129 131 130 122 112 118 124 122 121 122 128 134 152 150 154 159 168 169 151 151 164 173 166 178 176 158 156 149 140 130 140
182 178 163 143 111 120 128 114 119 122 125 125 128 128 128 128 123 120 120 115 108 118 125 135 140 138 154 156 144 160 159 156 153 136 146 157 176 169 166 156 147 143 135
187 177 156 144 124 119 132 115 116 121 126 129 133 135 138 135 135 132 122 119 118 129 130 138 137 152 132 141 140 145 155 141 151 147 140 143 151 159 160 155 151 145 136
191 181 162 150 132 126 133 123 116 128 133 133 135 147 160 157 153 161 160 146 135 136 140 141 146 158 142 145 133 128 128 136 122 120 140 151 151 150 150 153 148 145 143
195 186 173 161 144 136 128 122 119 130 141 143 139 140 152 166 157 165 178 140 127 136 148 151 152 142 144 137 137 132 130 143 139 128 134 139 142 140 137 142 152 152 147
199 192 180 174 163 151 140 120 119 114 136 135 108 99 123 128 129 131 134 131 127 141 152 153 154 151 143 141 135 139 142 140 134 126 129 134 139 142 148 156 156 152 155
200 195 186 181 177 165 157 141 131 121 134 143 134 114 98 110 124 127 128 130 124 130 132 143 149 144 142 137 139 143 141 142 143 141 137 140 143 148 149 152 148 147 163
196 196 192 188 183 174 166 160 149 140 132 142 142 132 124 114 114 120 133 143 138 139 136 140 147 143 140 136 137 144 145 139 142 153 145 143 145 149 150 146 148 146 197
198 197 195 191 188 185 181 172 164 161 151 144 141 136 136 138 133 129 128 134 143 151 149 150 153 156 156 150 146 149 151 146 141 150 157 154 156 162 161 166 175 201 259
200 200 196 192 194 194 191 189 182 176 176 172 167 157 148 141 139 139 142 146 153 158 161 165 171 168 169 167 167 168 171 179 192 190 183 177 181 195 199 196 207 234 273
201 201 198 196 195 199 200 202 202 196 192 191 188 185 177 169 166 164 160 158 160 166 176 174 174 176 178 182 186 185 188 197 210 209 203 205 212 211 207 219 229 243 271
201 202 200 200 198 199 203 206 207 210 213 206 202 201 198 194 187 181 182 181 181 184 188 194 194 193 192 191 193 198 202 205 206 210 212 220 224 219 217 224 233 239 253
202 203 202 201 201 201 203 206 212 215 215 215 222 223 213 210 209 209 205 206 210 211 210 209 208 208 208 208 207 208 209 209 210 217 227 235 236 232 229 223 224 235 228
208 204 204 204 203 205 205 206 209 211 217 220 217 213 220 224 215 214 220 224 224 224 225 226 224 223 220 219 218 217 217 217 222 230 236 239 237 237 229 224 227 229 211
210 211 206 206 206 207 211 212 212 212 213 217 215 216 217 216 216 218 223 225 224 225 226 227 226 226 226 225 222 222 223 225 231 235 238 239 239 238 230 225 226 216 209
210 212 211 211 210 211 211 216 220 220 218 220 217 216 217 219 218 219 222 228 230 229 228 229 228 228 230 229 230 230 230 233 238 242 242 241 241 236 227 224 221 208 207
213 216 215 214 214 215 215 217 221 227 228 227 225 227 226 225 225 223 224 226 227 228 229 231 232 234 235 235 236 238 238 240 243 245 244 242 238 234 229 226 215 208 202
213 217 218 219 220 220 221 220 220 224 230 232 232 232 234 235 237 235 233 231 231 232 231 232 234 236 239 241 241 242 244 246 247 247 247 245 238 230 224 228 214 203 194
216 218 220 222 224 224 226 226 227 229 232 236 237 237 237 238 240 240 240 240 240 240 242 242 241 240 242 245 246 245 245 248 249 250 246 241 228 219 218 217 211 199 182
224 224 223 226 229 229 230 231 231 232 232 234 237 240 240 240 242 244 243 242 243 243 245 248 251 254 251 250 251 251 250 249 250 260 250 237 223 220 213 198 194 197 208
231 231 231 230 233 234 233 234 235 235 237 239 238 242 245 244 246 247 248 248 247 247 246 248 251 254 256 255 254 253 254 245 247 249 243 233 222 216 202 191 194 193 203
237 236 239 236 233 236 236 236 237 236 236 239 245 244 244 247 247 249 249 251 252 252 253 254 256 258 260 260 258 256 254 249 249 244 237 230 222 211 198 190 191 189 209
231 238 240 243 238 235 238 239 239 237 236 234 237 244 250 253 254 254 256 257 258 261 262 262 260 259 259 260 260 260 257 256 252 248 242 220 215 208 198 189 187 192 207